EW8486 Weather Reports


Display with metric or nautical units.
time (UTC)temp
F
wind
direction
speed
MPH
gust
MPH
rain 1hr
in
rain 24hr
in
rain mn
in
humidity
%
barometer
mb
20260901010517 75 180 1.0 2.0 0.00 0.00 0.00 44 1010.4
20260901005017 76 180 1.0 2.0 0.00 0.00 0.00 45 1010.5
20260901003516 74 180 1.0 2.0 0.00 0.00 0.00 50 1010.7
20260901002016 73 180 2.0 3.0 0.00 0.00 0.00 53 1010.8
20260901000517 72 158 1.0 3.0 0.00 0.00 0.00 56 1011.1
20260831235016 73 158 1.0 2.0 0.00 0.00 0.00 48 1011.3
20260831233516 74 158 2.0 3.0 0.00 0.00 0.00 44 1011.4
20260831232017 74 135 2.0 3.0 0.00 0.00 0.00 46 1011.7
20260831230517 74 135 2.0 5.0 0.00 0.00 0.00 44 1011.9
20260831225036 73 158 2.0 4.0 0.00 0.00 0.00 46 1012.0
20260831223517 73 135 2.0 4.0 0.00 0.00 0.00 48 1012.3
20260831222036 74 135 2.0 5.0 0.00 0.00 0.00 47 1012.6
20260831220516 74 158 3.0 5.0 0.00 0.00 0.00 47 1012.8
20260831215036 74 90 2.0 3.0 0.00 0.00 0.00 47 1013.0
20260831213536 73 135 3.0 5.0 0.00 0.00 0.00 49 1013.2
20260831212036 74 68 3.0 6.0 0.00 0.00 0.00 51 1013.4
20260831210516 74 90 2.0 6.0 0.00 0.00 0.00 51 1013.7
20260831205016 73 158 2.0 5.0 0.00 0.00 0.00 52 1014.0
20260831203516 71 135 2.0 4.0 0.00 0.00 0.00 54 1014.3
20260831202016 70 135 2.0 4.0 0.00 0.00 0.00 53 1014.6
20260831200536 70 135 2.0 4.0 0.00 0.00 0.00 56 1015.0
20260831195036 68 158 3.0 6.0 0.00 0.00 0.00 58 1015.2
20260831193536 68 135 3.0 4.0 0.00 0.00 0.00 59 1015.4
20260831192016 68 158 3.0 6.0 0.00 0.00 0.00 58 1015.8
20260831190556 68 90 2.0 4.0 0.00 0.00 0.00 58 1016.0
20260831185016 67 135 2.0 4.0 0.00 0.00 0.00 60 1016.2
20260831183516 67 113 2.0 4.0 0.00 0.00 0.00 60 1016.5
20260831182016 67 135 2.0 4.0 0.00 0.00 0.00 60 1016.7
20260831180536 67 90 2.0 4.0 0.00 0.00 0.00 63 1016.9
20260831175016 65 90 2.0 5.0 0.00 0.00 0.00 65 1017.1
20260831173536 64 23 2.0 5.0 0.00 0.00 0.00 67 1017.1
20260831172036 63 158 2.0 4.0 0.00 0.00 0.00 67 1017.2
20260831170515 63 135 2.0 4.0 0.00 0.00 0.00 66 1017.2
20260831165015 62 135 2.0 4.0 0.00 0.00 0.00 69 1017.3
20260831163515 60 135 2.0 3.0 0.00 0.00 0.00 71 1017.4
20260831162015 60 113 1.0 3.0 0.00 0.00 0.00 71 1017.5
20260831160515 60 113 1.0 3.0 0.00 0.00 0.00 72 1017.6
20260831155015 60 90 2.0 4.0 0.00 0.00 0.00 70 1017.7
20260831153516 60 90 2.0 3.0 0.00 0.00 0.00 69 1017.8
20260831152016 60 23 2.0 5.0 0.00 0.00 0.00 68 1017.9
20260831150536 58 0.0 0.0 0.00 0.00 0.00 69 1017.7
20260831145016 58 0.0 0.0 0.00 0.00 0.00 69 1017.5
20260831143536 57 0.0 0.0 0.00 0.00 0.00 73 1017.4
20260831142036 55 0.0 0.0 0.00 0.00 0.00 76 1017.4
20260831140515 54 0.0 0.0 0.00 0.00 0.00 77 1017.3
20260831135016 54 0.0 0.0 0.00 0.00 0.00 76 1017.3
20260831133515 52 0.0 0.0 0.00 0.00 0.00 78 1017.2
20260831132015 52 0.0 0.0 0.00 0.00 0.00 79 1017.1
20260831130515 53 0.0 0.0 0.00 0.00 0.00 76 1017.2
20260831125015 54 0.0 1.0 0.00 0.00 0.00 74 1017.2
20260831123515 53 0.0 2.0 0.00 0.00 0.00 78 1017.2
20260831122037 53 0.0 1.0 0.00 0.00 0.00 77 1017.0
20260831120517 54 0.0 0.0 0.00 0.00 0.00 77 1017.2
20260831115017 53 0.0 0.0 0.00 0.00 0.00 79 1017.4
20260831113537 53 0.0 1.0 0.00 0.00 0.00 78 1017.5
20260831112037 53 0.0 1.0 0.00 0.00 0.00 77 1017.5
20260831110517 54 0.0 1.0 0.00 0.00 0.00 75 1017.5
20260831105017 56 0.0 2.0 0.00 0.00 0.00 71 1017.6
20260831103537 55 270 1.0 4.0 0.00 0.00 0.00 74 1017.4
20260831102017 54 0.0 1.0 0.00 0.00 0.00 74 1017.2
20260831100517 56 0.0 1.0 0.00 0.00 0.00 70 1017.4
20260831095037 55 338 1.0 3.0 0.00 0.00 0.00 73 1017.5
20260831093517 54 0.0 1.0 0.00 0.00 0.00 76 1017.5
20260831092017 55 0.0 1.0 0.00 0.00 0.00 74 1017.5
20260831090517 55 0.0 0.0 0.00 0.00 0.00 73 1017.6
20260831085016 56 0.0 1.0 0.00 0.00 0.00 72 1017.6
20260831083516 57 0.0 2.0 0.00 0.00 0.00 69 1017.6
20260831082017 58 338 1.0 6.0 0.00 0.00 0.00 66 1017.6
20260831080516 60 248 1.0 3.0 0.00 0.00 0.00 60 1017.7
20260831075017 62 338 2.0 5.0 0.00 0.00 0.00 58 1017.8
20260831073517 62 248 2.0 6.0 0.00 0.00 0.00 57 1017.8
20260831072016 61 0 2.0 4.0 0.00 0.00 0.00 58 1017.7
20260831070517 62 270 2.0 7.0 0.00 0.00 0.00 56 1017.8
20260831065015 62 248 1.0 6.0 0.00 0.00 0.00 58 1017.9
20260831063516 63 248 2.0 7.0 0.00 0.00 0.00 57 1017.9
20260831062015 63 248 3.0 9.0 0.00 0.00 0.00 55 1017.7
20260831060516 63 248 2.0 6.0 0.00 0.00 0.00 56 1017.8
20260831055015 63 248 3.0 10.0 0.00 0.00 0.00 56 1017.9
20260831053535 63 293 1.0 5.0 0.00 0.00 0.00 57 1017.8
20260831052015 63 338 1.0 4.0 0.00 0.00 0.00 56 1017.7
20260831050535 64 248 3.0 6.0 0.00 0.00 0.00 54 1017.7
20260831045015 64 225 2.0 5.0 0.00 0.00 0.00 54 1017.7
20260831043515 64 203 3.0 7.0 0.00 0.00 0.00 54 1017.7
20260831042036 64 248 3.0 9.0 0.00 0.00 0.00 54 1017.5
20260831040515 64 0.0 3.0 0.00 0.00 0.00 56 1017.5
20260831035017 65 225 2.0 6.0 0.00 0.00 0.00 54 1017.2
20260831033517 65 203 2.0 4.0 0.00 0.00 0.00 54 1017.1
20260831032058 66 248 2.0 5.0 0.00 0.00 0.00 52 1016.9
20260831030517 66 225 1.0 8.0 0.00 0.00 0.00 52 1016.9
20260831025017 67 180 2.0 7.0 0.00 0.00 0.00 51 1016.9
20260831023517 67 225 2.0 5.0 0.00 0.00 0.00 52 1016.9
20260831022017 68 248 2.0 4.0 0.00 0.00 0.00 50 1016.9
20260831020517 68 225 2.0 7.0 0.00 0.00 0.00 49 1016.9
20260831015017 68 203 2.0 8.0 0.00 0.01 0.00 49 1016.9
20260831013517 69 248 2.0 7.0 0.00 0.02 0.00 50 1016.9
20260831012017 69 248 2.0 4.0 0.00 0.03 0.00 50 1017.1